Terminal Aerodrome Forecast
Issued by NWS Sioux Falls, SD

Home | Current Version | Previous Version | Graphics & Text | Print | Product List | Glossary On
Versions: 1 2 3 4 5 6 7 8 9 10 11 12 13 14 15 16 17 18 19 20 21 22 23 24 25 26 27 28 29 30 31 32
532
FTUS43 KFSD 241732
TAFSUX
TAF
KSUX 241732Z 2418/2518 03014G20KT P6SM OVC015
     FM242000 02016G25KT P6SM VCSH OVC015
     FM250600 02011G20KT 6SM BR OVC008
     FM251600 02012KT P6SM OVC010=

USA.gov is the U.S. government's official web portal to all federal, state and local government web resources and services.